Location: Unspecified
(36.1222°N, 0.0000°E)
Time: 12:33:06
(UTC+00:00)

OTV 5 (USA 277) - Visible Passes

Search period start: 23 October 2019 00:00
Search period end: 02 November 2019 00:00
Orbit: 310 x 324 km, 54.5° (Epoch: 17 October)

Date Brightness Start Highest point End Pass type
(mag) Time Alt. Az. Time Alt. Az. Time Alt. Az.
23 Oct ? 04:18:45 12° SE 04:18:45 12° SE 04:18:59 10° SE visible
26 Oct ? 18:07:30 10° S 18:09:16 17° SE 18:09:16 17° SE visible
27 Oct ? 18:21:03 10° SSW 18:23:43 56° SE 18:24:02 51° E visible
28 Oct ? 18:35:43 10° WSW 18:38:16 38° NW 18:38:40 35° NNW visible
29 Oct ? 18:51:16 10° WNW 18:52:59 15° NW 18:53:10 15° NNW visible
30 Oct ? 17:30:22 10° SW 17:33:04 73° NW 17:35:48 10° NE visible
31 Oct ? 17:45:27 10° W 17:47:42 23° NW 17:49:59 10° NNE visible
01 Nov ? 18:01:57 10° NW 18:02:30 10° NNW 18:03:04 10° NNW visible
